Location: Cicognara
(44.9500°N, 10.4667°E)
Time: 14:31:26
(UTC+00:00)

BREEZE-M DEB (TANK) - Pass Details

Date: 20 June 2021
Orbit: 334 x 16573 km, 49.3° (Epoch: 01 August)

Event Time Altitude Azimuth Distance (km) Brightness Sun altitude
Rises 21:35:20 0° 233° (SW) 8,975 8.3 -17.6°
Reaches altitude 10° 21:43:54 10° 233° (SW) 5,716 7.3 -18.2°
Maximum altitude 21:55:30 66° 154° (SSE) 978 3.2 -19.0°
Drops below altitude 10° 21:58:58 10° 71° (ENE) 1,793 4.9 -19.2°
Sets 22:00:20 0° 68° (ENE) 2,428 5.7 -19.2°
